Oceana NAS, VA

2:04 PM EDT on September 19, 2017 (GMT -0400)
Oceana Naval Air Station

Weather History for KNTU - December, 2011

Change the Weather History Date:

Sunday, December 18, 2011

  Actual Average Record
Temperature  
Mean Temperature 36 °F -  
Max Temperature 44 °F 50 °F 73 °F (2006)
Min Temperature 28 °F 33 °F 23 °F (2007)
Degree Days  
Heating Degree Days 29    
Moisture  
Dew Point 25 °F    
Average Humidity 60    
Maximum Humidity 78    
Minimum Humidity 45    
Precipitation  
Precipitation 0.00 in - - ()
Sea Level Pressure  
Sea Level Pressure 30.28 in    
Wind  
Wind Speed 9 mph (NNW)    
Max Wind Speed 17 mph    
Max Gust Speed 20 mph    
Visibility 10 miles    
Events      
Averages and records for this station are not official NWS values.
T = Trace of Precipitation, MM = Missing Value Source: NWS Daily Summary

Daily Weather History Graph

Daily Weather History Graph

Search for Another Location

Airport or City:

Trip Planner

Search our weather history database for the weather conditions in past years. The results will help you decide how hot, cold, wet, or windy it might be!

Date:

Astronomy

Dec. 18, 2011 Rise Set
Actual Time 7:11 AM EST 4:49 PM EST
Civil Twilight 6:42 AM EST 5:18 PM EST
Nautical Twilight 6:09 AM EST 5:51 PM EST
Astronomical Twilight 5:38 AM EST 6:23 PM EST
Moon 12:17 AM EST (12/18) 12:07 PM EST (12/18)
Length of Visible Light 10h 36m
Length of Day
9h 38m
Last Quarter, 42% of the Moon is Illuminated
Dec 18
Last Quarter
Dec 24
New
Jan 1
First Quarter
Jan 9
Full
Jan 16
Last Quarter

Hourly Weather History & Observations

Time (EST) Temp. Windchill Dew Point Humidity Pressure Visibility Wind Dir Wind Speed Gust Speed Precip Events Conditions
12:56 AM 34.0 °F 28.0 °F 24.1 °F 67% 30.19 in 10.0 mi West 6.9 mph - N/A   Scattered Clouds
1:56 AM 36.0 °F 29.6 °F 26.1 °F 67% 30.20 in 10.0 mi WNW 8.1 mph - N/A   Overcast
2:56 AM 39.0 °F 31.4 °F 28.0 °F 65% 30.21 in 10.0 mi NNW 12.7 mph - N/A   Overcast
3:56 AM 37.9 °F 30.0 °F 26.1 °F 62% 30.22 in 10.0 mi NNW 12.7 mph - N/A   Overcast
4:56 AM 36.0 °F 29.0 °F 25.0 °F 64% 30.22 in 10.0 mi NNW 9.2 mph - N/A   Mostly Cloudy
5:56 AM 36.0 °F 29.0 °F 24.1 °F 62% 30.23 in 10.0 mi NNW 9.2 mph - N/A   Scattered Clouds
6:56 AM 37.0 °F 29.3 °F 25.0 °F 62% 30.24 in 10.0 mi NNW 11.5 mph - N/A   Scattered Clouds
7:56 AM 37.9 °F 30.9 °F 24.1 °F 57% 30.25 in 10.0 mi NNW 10.4 mph - N/A   Scattered Clouds
8:56 AM 39.9 °F 31.1 °F 24.1 °F 53% 30.27 in 10.0 mi North 17.3 mph - N/A   Scattered Clouds
9:56 AM 42.1 °F 35.2 °F 23.0 °F 47% 30.30 in 10.0 mi NNW 12.7 mph - N/A   Scattered Clouds
10:56 AM 42.1 °F 34.9 °F 24.1 °F 49% 30.29 in 10.0 mi NNW 13.8 mph - N/A   Mostly Cloudy
11:56 AM 43.0 °F 36.4 °F 26.1 °F 51% 30.27 in 10.0 mi NNW 12.7 mph - N/A   Scattered Clouds
12:56 PM 44.1 °F 37.4 °F 26.1 °F 49% 30.27 in 10.0 mi NNW 13.8 mph 19.6 mph N/A   Scattered Clouds
1:56 PM 42.1 °F 34.2 °F 23.0 °F 47% 30.26 in 10.0 mi NNW 16.1 mph - N/A   Mostly Cloudy
2:56 PM 43.0 °F 35.4 °F 23.0 °F 45% 30.26 in 10.0 mi NNW 16.1 mph - N/A   Mostly Cloudy
3:56 PM 43.0 °F 36.8 °F 26.1 °F 51% 30.27 in 10.0 mi NNW 11.5 mph - N/A   Mostly Cloudy
4:56 PM 39.9 °F 33.9 °F 25.0 °F 55% 30.31 in 10.0 mi NNW 9.2 mph - N/A   Mostly Cloudy
5:56 PM 36.0 °F 33.3 °F 25.0 °F 64% 30.34 in 10.0 mi NNW 3.5 mph - N/A   Scattered Clouds
6:56 PM 36.0 °F 33.3 °F 25.0 °F 64% 30.36 in 10.0 mi WNW 3.5 mph - N/A   Clear
7:56 PM 34.0 °F - 24.1 °F 67% 30.38 in 10.0 mi Calm Calm - N/A   Clear
8:56 PM 33.1 °F - 24.1 °F 70% 30.37 in 10.0 mi Calm Calm - N/A   Clear
9:56 PM 32.0 °F - 24.1 °F 73% 30.38 in 10.0 mi Calm Calm - N/A   Clear
10:56 PM 28.9 °F - 23.0 °F 78% 30.37 in 10.0 mi Calm Calm - N/A   Clear
11:56 PM 28.9 °F - 23.0 °F 78% 30.36 in 10.0 mi Calm Calm - N/A   Clear